FW2695 Weather Reports


time (UTC)temp
F
wind
direction
speed
knots
gust
knots
rain 1hr
in
rain 24hr
in
rain mn
in
humidity
%
barometer
mb
20260906190015 83 37 0.9 4.3 0.00 0.00 0.00 76 1014.9
20260906184513 82 64 0.0 5.2 0.00 0.00 0.00 78 1015.1
20260906183016 82 58 0.0 5.2 0.00 0.00 0.00 78 1015.0
20260906181512 82 82 1.7 3.5 0.00 0.00 0.00 76 1015.0
20260906180010 82 59 1.7 4.3 0.00 0.00 0.00 76 1015.2
20260906174511 82 63 0.0 0.9 0.00 0.00 0.00 76 1015.6
20260906173008 82 233 0.0 3.5 0.00 0.00 0.00 75 1015.7
20260906171507 81 39 0.0 4.3 0.00 0.00 0.00 76 1015.8
20260906170008 81 267 0.0 2.6 0.00 0.00 0.00 76 1015.9
20260906164510 81 44 0.0 2.6 0.00 0.00 0.00 77 1016.0
20260906163005 81 49 0.0 2.6 0.00 0.00 0.00 77 1016.1
20260906161504 81 51 1.7 4.3 0.00 0.00 0.00 77 1016.1
20260906154557 80 326 0.0 0.9 0.00 0.00 0.00 80 1016.1
20260906153057 79 43 0.0 1.7 0.00 0.00 0.00 80 1016.0
20260906151609 79 44 0.0 2.6 0.00 0.00 0.00 82 1016.1
20260906150100 79 317 0.0 2.6 0.00 0.00 0.00 81 1016.0
20260906144556 78 294 0.9 3.5 0.00 0.00 0.00 83 1016.0
20260906143123 77 240 0.0 3.5 0.00 0.00 0.00 85 1016.1
20260906141554 76 229 0.0 1.7 0.00 0.00 0.00 86 1016.1
20260906140054 76 219 0.0 1.7 0.00 0.00 0.00 86 1016.1
20260906134559 76 253 0.9 2.6 0.00 0.00 0.00 85 1016.4
20260906133054 0 0.0 0.0 0.00 0.00 0.00 1016.3
20260906131549 0 0.0 0.0 0.00 0.00 0.00 1015.8
20260906130047 0 0.0 0.0 0.00 0.00 0.00 1015.3
20260906124543 0 0.0 0.0 0.00 0.00 0.00 1015.2
20260906123105 0 0.0 0.0 0.00 0.00 0.00 1015.1
20260906121528 0 0.0 0.0 0.00 0.00 0.00 1014.9
20260906120025 0 0.0 0.0 0.00 0.00 0.00 1014.8
20260906114520 0 0.0 0.0 0.00 0.00 0.00 1014.7
20260906113017 0 0.0 0.0 0.00 0.00 0.00 1014.6
20260906111523 0 0.0 0.0 0.00 0.00 0.00 1014.4
20260906110006 0 0.0 0.0 0.00 0.00 0.00 1014.3
20260906104502 0 0.0 0.0 0.00 0.00 0.00 1014.4
20260906103058 0 0.0 0.0 0.00 0.00 0.00 1014.4
20260906101555 0 82 0.0 0.9 0.00 0.00 0.00 1014.3
20260906100055 76 86 0.0 2.6 0.00 0.00 0.00 84 1014.3
20260906094604 75 84 0.9 1.7 0.00 0.00 0.00 85 1014.2
20260906093052 76 82 0.9 2.6 0.00 0.00 0.00 85 1014.2
20260906091602 76 84 1.7 3.5 0.00 0.00 0.00 85 1014.2
20260906090052 76 75 2.6 3.5 0.00 0.00 0.00 85 1014.1
20260906084550 77 72 2.6 5.2 0.00 0.00 0.00 82 1014.3
20260906083045 77 53 0.9 3.5 0.00 0.00 0.00 82 1014.3
20260906081545 77 72 1.7 3.5 0.00 0.00 0.00 82 1014.1
20260906080045 77 72 1.7 3.5 0.00 0.00 0.00 82 1014.1
20260906074548 77 67 1.7 4.3 0.00 0.00 0.00 82 1014.1
20260906073043 77 96 0.9 4.3 0.00 0.00 0.00 81 1014.0
20260906071540 77 77 1.7 3.5 0.00 0.00 0.00 82 1014.0
20260906070040 77 94 2.6 4.3 0.00 0.00 0.00 82 1013.8
20260906064537 78 86 1.7 3.5 0.00 0.00 0.00 81 1014.0
20260906063034 78 81 3.5 5.2 0.00 0.00 0.00 80 1014.1
20260906061533 79 83 1.7 4.3 0.00 0.00 0.00 80 1014.1
20260906060030 79 72 2.6 5.2 0.00 0.00 0.00 78 1014.2
20260906054538 79 85 1.7 2.6 0.00 0.00 0.00 78 1014.1
20260906053028 79 84 1.7 2.6 0.00 0.00 0.00 78 1014.1
20260906051528 80 85 0.9 1.7 0.00 0.00 0.00 79 1014.0
20260906050023 79 84 1.7 2.6 0.00 0.00 0.00 80 1014.0
20260906044523 79 84 0.0 0.9 0.00 0.00 0.00 80 1013.9
20260906043029 79 84 0.9 2.6 0.00 0.00 0.00 80 1014.1
20260906041522 80 82 1.7 2.6 0.00 0.00 0.00 79 1014.1
20260906040021 81 82 1.7 3.5 0.00 0.00 0.00 78 1014.1
20260906034521 82 77 2.6 4.3 0.00 0.00 0.00 76 1014.1
20260906033024 82 85 1.7 2.6 0.00 0.00 0.00 76 1014.1
20260906031520 82 85 1.7 2.6 0.00 0.00 0.00 76 1014.0
20260906024510 82 82 0.9 2.6 0.00 0.00 0.00 76 1013.2
20260906023009 83 80 1.7 3.5 0.00 0.00 0.00 75 1012.8
20260906021509 84 79 0.9 2.6 0.00 0.00 0.00 73 1012.7
20260906020011 85 87 0.9 1.7 0.00 0.00 0.00 72 1012.4
20260906014508 85 120 0.0 0.9 0.00 0.00 0.00 71 1012.1
20260906013008 86 120 0.0 0.9 0.00 0.00 0.00 71 1012.1
20260906011508 86 120 0.9 1.7 0.00 0.00 0.00 70 1011.9
20260906010007 87 120 0.0 0.0 0.00 0.00 0.00 70 1011.8
20260906004507 88 120 0.0 0.9 0.00 0.00 0.00 69 1011.7
20260906003006 89 115 0.0 1.7 0.00 0.00 0.00 67 1011.8
20260906001514 90 153 0.0 1.7 0.00 0.00 0.00 64 1011.8
20260906000013 91 201 0.9 3.5 0.00 0.00 0.00 63 1011.9
20260905234506 92 184 1.7 4.3 0.00 0.00 0.00 62 1011.9
20260905233003 92 186 1.7 7.0 0.00 0.00 0.00 61 1011.8
20260905231503 93 164 2.6 7.8 0.00 0.00 0.00 60 1011.6
20260905230002 93 133 0.9 6.1 0.00 0.00 0.00 60 1011.6
20260905224501 93 226 5.2 9.6 0.00 0.00 0.00 58 1011.5
20260905223100 94 217 7.0 13.0 0.00 0.00 0.00 56 1011.5
20260905221603 94 173 3.5 13.0 0.00 0.00 0.00 56 1011.4
20260905214601 95 115 3.5 9.6 0.00 0.00 0.00 55 1011.6
20260905213055 95 110 5.2 10.4 0.00 0.00 0.00 57 1011.9
20260905211553 94 95 3.5 11.3 0.00 0.00 0.00 60 1011.9
20260905210058 94 84 2.6 13.0 0.00 0.00 0.00 61 1012.2
20260905204550 93 108 8.7 16.5 0.00 0.00 0.00 61 1012.4
20260905203044 92 102 7.0 13.9 0.00 0.00 0.00 67 1012.8
20260905201541 92 94 8.7 14.8 0.00 0.00 0.00 66 1013.0
20260905200041 91 58 7.8 13.0 0.00 0.00 0.00 69 1013.3
20260905194539 91 33 7.8 13.9 0.00 0.00 0.00 69 1013.8
20260905193036 91 61 7.8 15.6 0.00 0.00 0.00 68 1014.0
20260905191535 91 34 9.6 14.8 0.00 0.00 0.00 66 1014.2